This demonstration page uses our WeatherBlox Daily Observations layout. Learn more.

Left ArrowRight Arrow

Hourly Observations for December 16, 2021

Temp ( °F °C ) Dew Point ( °F °C ) Humidity (%) Winds ( mph kmh ) Pressure ( in mb ) Visibility ( mi km ) Precip ( " mm )
12:59 am 00:59 Partly Cloudy 54 12.2 51 10.6 90 90 S 7 11 30.32 1027 7 11 0.00 0.00
1:59 am 01:59 Partly Cloudy 54 12.2 51 10.6 90 90 SSW 6 9 30.31 1027 10 16 0.00 0.00
2:59 am 02:59 Partly Cloudy 53 11.7 50 10 89 89 SSW 7 11 30.31 1027 10 16 0.00 0.00
3:59 am 03:59 Partly Cloudy 53 11.7 49 9.4 86 86 SSW 6 9 30.30 1026 9 14 0.00 0.00
4:59 am 04:59 Partly Cloudy 51 10.6 48 8.9 89 89 SSW 5 7 30.29 1026 7 11 0.00 0.00
5:59 am 05:59 Partly Cloudy 50 10 47 8.3 89 89 SW 5 7 30.29 1026 7 11 0.00 0.00
6:59 am 06:59 Partly Cloudy 50 10 47 8.3 89 89 WSW 5 7 30.30 1026 8 13 0.00 0.00
7:59 am 07:59 Partly Cloudy 51 10.6 46 7.8 83 83 WSW 5 7 30.30 1026 7 11 0.00 0.00
8:59 am 08:59 Partly Cloudy 55 12.8 47 8.3 74 74 SW 5 7 30.30 1026 7 11 0.00 0.00
9:59 am 09:59 Partly Cloudy 59 15 47 8.3 64 64 WSW 7 11 30.30 1026 10 16 0.00 0.00
10:59 am 10:59 Mostly Cloudy 63 17.2 49 9.4 60 60 SW 12 19 30.27 1025 10 16 0.00 0.00
11:59 am 11:59 Mostly Cloudy 67 19.4 51 10.6 57 57 SW 12 19 30.23 1024 10 16 0.00 0.00
12:59 pm 12:59 Mostly Cloudy 68 20 50 10 53 53 SW 13 20 30.19 1022 10 16 0.00 0.00
1:59 pm 13:59 Mostly Cloudy 70 21.1 50 10 49 49 SW 14 22 30.16 1021 10 16 0.00 0.00
2:59 pm 14:59 Mostly Cloudy 70 21.1 49 9.4 47 47 SSW 13 20 30.14 1021 10 16 0.00 0.00
3:59 pm 15:59 Mostly Cloudy 69 20.6 49 9.4 49 49 SW 12 19 30.14 1021 10 16 0.00 0.00
4:59 pm 16:59 Mostly Cloudy 67 19.4 50 10 55 55 SW 12 19 30.14 1021 10 16 0.00 0.00
5:59 pm 17:59 Mostly Cloudy 67 19.4 51 10.6 57 57 SW 9 15 30.14 1021 10 16 0.00 0.00
6:59 pm 18:59 Mostly Cloudy 65 18.3 52 11.1 63 63 SSW 8 13 30.14 1021 10 16 0.00 0.00
7:59 pm 19:59 Partly Cloudy 66 18.9 52 11.1 61 61 SSW 8 13 30.14 1021 10 16 0.00 0.00
8:59 pm 20:59 Partly Cloudy 64 17.8 52 11.1 65 65 SSW 9 15 30.13 1020 10 16 0.00 0.00
9:59 pm 21:59 Mostly Cloudy 65 18.3 53 11.7 66 66 SW 8 13 30.14 1021 10 16 0.00 0.00
10:59 pm 22:59 Partly Cloudy 62 16.7 52 11.1 70 70 SW 7 11 30.15 1021 10 16 0.00 0.00
11:59 pm 23:59 Partly Cloudy 63 17.2 53 11.7 70 70 SW 10 17 30.13 1020 10 16 0.00 0.00

Powered by AerisWeather